Location: Banff
(51.1670°N, 115.5670°W)
Time: 17:15:13
(UTC-06:00)

Amateur Radio Satellites - All Passes

Search period start: 24 May 2015 16:45
Search period end: 25 May 2015 16:45
Location: Banff, 51.1670°N, 115.5670°W

Satellite Date Start Highest point End Downlink Frequencies (MHz)
Time Altitude Azimuth
BEESAT 24 May 16:45:42 16:49:56 32° 297° (WNW) 16:54:07 436.000
SWISSCUBE 24 May 16:53:57 16:57:55 26° 299° (WNW) 17:01:49 437.505
ITAMSAT 1 24 May 17:04:56 17:06:39 11° 278° (W) 17:08:03 435.822/435.867
MOZHAYETS 4 24 May 17:07:06 17:09:20 14° 85° (E) 17:11:46
STARS 24 May 17:07:35 17:12:04 75° 105° (ESE) 17:16:30 437.465
DANDE 24 May 17:11:17 17:17:16 22° 313° (NW) 17:23:29 436.750
RS-15 24 May 17:12:16 17:23:19 53° 28° (NNE) 17:34:55 29.354- 29.394
CUTE-I 24 May 17:15:38 17:18:53 17° 53° (NE) 17:22:19 437.470
HORYU 2 24 May 17:29:30 17:33:13 24° 268° (W) 17:36:53 437.375
Cosmos 2499 24 May 17:33:02 17:40:58 56° 288° (WNW) 17:48:19 435.465 / 435.565
KKS-1 24 May 17:33:15 17:37:33 44° 292° (WNW) 17:41:47 437.445
Cubesat XI-IV 24 May 17:34:25 17:38:26 23° 57° (ENE) 17:42:35 437.490
YUBILEINY 24 May 17:56:29 18:03:11 24° 53° (NE) 18:10:05 435.215
O/OREOS (USA 219) 24 May 18:00:48 18:05:19 74° 300° (WNW) 18:09:50 437.305
JAS-2 24 May 18:01:31 18:06:51 24° 270° (W) 18:11:35 435.910
CUSAT 1 24 May 18:06:47 18:09:22 11° 328° (NNW) 18:11:38 437.405
AO-7 24 May 18:12:41 18:19:45 29° 269° (W) 18:26:42 29.400- 29.500
GONETS M04 24 May 18:19:19 18:23:09 13° 324° (NW) 18:26:36
CUBESAT XI-V 24 May 18:39:13 18:40:20 11° 82° (E) 18:41:42 437.345
MOZHAYETS 4 24 May 18:42:41 18:47:17 85° 284° (WNW) 18:51:52
STARS 24 May 18:45:03 18:48:02 17° 302° (WNW) 18:50:53 437.465
BRITE-PL 24 May 18:45:21 18:47:12 12° 48° (NE) 18:49:17 437.365/2234.400
CUTE-I 24 May 18:52:57 18:58:15 81° 73° (ENE) 19:03:38 437.470
BEESAT 2 24 May 18:57:44 18:58:37 11° 111° (ESE) 18:59:43 435.950
GOMX 1 24 May 19:01:52 19:03:17 11° 48° (NE) 19:04:56 467.674
Cubesat XI-IV 24 May 19:12:47 19:18:06 72° 257° (WSW) 19:23:28 437.490
RS-15 24 May 19:25:09 19:36:38 75° 235° (SW) 19:48:36 29.354- 29.394
Cosmos 2499 24 May 19:31:53 19:36:08 15° 313° (NW) 19:39:56 435.465 / 435.565
PRISM 24 May 19:33:09 19:35:25 15° 88° (E) 19:37:50 437.425
HO-68 24 May 19:40:53 19:46:45 29° 52° (NE) 19:52:44 435.675
O/OREOS (USA 219) 24 May 19:42:48 19:45:36 16° 322° (NW) 19:48:19 437.305
BEESAT 3 24 May 19:47:06 19:50:50 35° 121° (ESE) 19:54:38 437.485
YUBILEINY 24 May 19:52:51 20:01:38 83° 80° (E) 20:10:21 435.215
Cosmos 2491 24 May 20:01:56 20:09:56 43° 86° (E) 20:18:06 435.465 / 435.565
AIST 2 24 May 20:06:57 20:09:39 17° 114° (ESE) 20:12:28 435.215
CINEMA 3 24 May 20:10:40 20:13:12 14° 54° (NE) 20:15:54 145.822/145.860
CANX-2 24 May 20:11:28 20:14:33 20° 62° (ENE) 20:17:44 2200.000
DOVE 4 24 May 20:11:49 20:15:55 25° 60° (ENE) 20:20:14 437.250
CUBESAT XI-V 24 May 20:13:59 20:18:43 75° 104° (ESE) 20:23:24 437.345
CUTE 1.7 + AOD 2 24 May 20:15:25 20:18:31 20° 62° (ENE) 20:21:41 437.475
BRITE-PL 24 May 20:19:33 20:24:32 53° 69° (ENE) 20:29:55 437.365/2234.400
MOZHAYETS 4 24 May 20:21:22 20:23:53 14° 304° (NW) 20:26:16
STRAND 1 24 May 20:30:09 20:35:06 46° 98° (E) 20:40:04 437.568
BEESAT 2 24 May 20:31:54 20:36:01 72° 128° (SE) 20:40:11 435.950
GOMX 1 24 May 20:35:14 20:40:13 49° 68° (ENE) 20:45:29 467.674
CUTE-I 24 May 20:35:26 20:39:05 18° 273° (W) 20:42:34 437.470
UWE-3 24 May 20:37:36 20:38:21 10° 52° (NE) 20:39:18 435.000/436.395/437.385
SEEDS 24 May 20:41:28 20:45:04 28° 65° (ENE) 20:48:43 437.485
Cosmos 2504 24 May 20:49:16 20:55:03 25° 57° (ENE) 21:00:52 435.465 / 435.565
FUNcube-1 24 May 20:53:55 20:55:13 11° 54° (NE) 20:56:43 145.935
Cubesat XI-IV 24 May 20:57:06 20:59:18 12° 278° (W) 21:01:14 437.490
COMPASS 1 24 May 20:58:38 21:02:23 33° 67° (ENE) 21:06:11 437.405
PRISM 24 May 21:07:15 21:11:23 70° 288° (WNW) 21:15:31 437.425
AAUSAT CUBESAT 2 24 May 21:12:49 21:16:42 39° 69° (ENE) 21:20:37 437.432
CUBEBUG 2 24 May 21:17:38 21:21:31 26° 62° (ENE) 21:25:26 437.445
BEESAT 3 24 May 21:24:54 21:28:48 40° 321° (NW) 21:32:43 437.485
HO-68 24 May 21:26:40 21:33:54 81° 254° (WSW) 21:41:08 435.675
ZACube-1 24 May 21:30:45 21:34:16 22° 62° (ENE) 21:37:51 437.345
M-CUBED/EXP-1 PRIME 24 May 21:34:37 21:38:02 86° 112° (ESE) 21:41:20 437.505
RS-15 24 May 21:38:45 21:47:27 24° 258° (WSW) 21:55:52 29.354- 29.394
UKube-1 24 May 21:39:15 21:41:37 15° 56° (ENE) 21:44:06 .
AIST 2 24 May 21:43:27 21:47:44 80° 311° (NW) 21:52:04 435.215
DX 1 24 May 21:43:47 21:46:33 17° 58° (ENE) 21:49:26 434.975-435.025
CINEMA 3 24 May 21:44:37 21:49:35 71° 73° (ENE) 21:54:39 145.822/145.860
AUBIESAT-1 24 May 21:45:13 21:48:37 82° 292° (WNW) 21:51:55 437.475
CANX-2 24 May 21:45:57 21:50:10 56° 260° (W) 21:54:22 2200.000
HUMSAT D 24 May 21:46:28 21:49:01 16° 59° (ENE) 21:51:41 437.325/437.525
DOVE 4 24 May 21:48:09 21:53:16 64° 260° (W) 21:58:35 437.250
Oscar 11 24 May 21:48:19 21:52:27 45° 69° (ENE) 21:56:37 145.826/435.025
VELOX 1 24 May 21:49:52 21:51:11 11° 53° (NE) 21:52:39 145.980
CUTE 1.7 + AOD 2 24 May 21:49:54 21:54:07 56° 260° (W) 21:58:19 437.475
YUBILEINY 24 May 21:50:39 21:57:35 27° 281° (W) 22:04:14 435.215
CUBESAT XI-V 24 May 21:52:25 21:55:40 19° 301° (WNW) 21:58:49 437.345
DELFI C3 24 May 21:56:55 22:00:40 40° 69° (ENE) 22:04:28 145.870
Cosmos 2491 24 May 21:58:02 22:06:41 56° 290° (WNW) 22:15:22 435.465 / 435.565
BRITE-PL 24 May 21:58:57 22:03:23 28° 270° (W) 22:08:02 437.365/2234.400
AIST 1 24 May 22:03:23 22:07:37 68° 98° (E) 22:11:54
UWE-3 24 May 22:09:24 22:14:00 56° 71° (ENE) 22:18:36 435.000/436.395/437.385
STRAND 1 24 May 22:09:39 22:14:11 31° 298° (WNW) 22:18:39 437.568
BEESAT 2 24 May 22:11:00 22:14:31 25° 329° (NNW) 22:18:01 435.950
GOMX 1 24 May 22:14:02 22:18:35 30° 269° (W) 22:23:19 467.674
SEEDS 24 May 22:16:51 22:20:47 36° 264° (W) 22:24:43 437.485
AISAT 24 May 22:18:24 22:21:33 20° 59° (ENE) 22:24:50 437.250
GONETS M04 24 May 22:25:58 22:28:36 12° 33° (NNE) 22:31:37
FUNcube-1 24 May 22:26:13 22:30:45 63° 72° (ENE) 22:35:18 145.935
COMPASS 1 24 May 22:34:22 22:38:06 30° 265° (W) 22:41:48 437.405
DANDE 24 May 22:36:26 22:40:18 14° 35° (NE) 22:44:18 436.750
Cosmos 2504 24 May 22:42:09 22:49:30 82° 263° (W) 22:56:40 435.465 / 435.565
PRISM 24 May 22:45:00 22:46:08 11° 306° (NW) 22:47:07 437.425
AAUSAT CUBESAT 2 24 May 22:48:57 22:52:27 25° 267° (W) 22:55:54 437.432
CUBEBUG 2 24 May 22:53:15 22:57:56 53° 261° (W) 23:02:37 437.445
UNISAT 6 24 May 22:57:32 22:57:59 10° 82° (E) 22:58:40 437.425
BEESAT 3 24 May 23:05:21 23:07:49 15° 344° (NNW) 23:10:16 437.485
ZACube-1 24 May 23:05:45 23:10:19 58° 260° (W) 23:14:51 437.345
M-CUBED/EXP-1 PRIME 24 May 23:11:24 23:12:22 11° 310° (NW) 23:13:13 437.505
UKube-1 24 May 23:12:50 23:17:11 88° 259° (W) 23:21:33 .
50 SAT 24 May 23:15:12 23:19:08 57° 72° (ENE) 23:23:05 437.505
ESTCUBE 1 24 May 23:16:11 23:20:17 36° 66° (ENE) 23:24:26 437.505/2401.250
HO-68 24 May 23:17:54 23:22:53 19° 276° (W) 23:27:35 435.675
DX 1 24 May 23:17:57 23:22:19 75° 256° (WSW) 23:26:44 434.975-435.025
HUMSAT D 24 May 23:19:55 23:24:15 80° 257° (WSW) 23:28:36 437.325/437.525
VELOX 1 24 May 23:22:33 23:26:56 65° 72° (ENE) 23:31:24 145.980
AIST 2 24 May 23:23:34 23:26:57 22° 334° (NNW) 23:30:19 435.215
CINEMA 3 24 May 23:23:41 23:27:20 19° 273° (W) 23:30:54 145.822/145.860
CUSAT 1 24 May 23:24:11 23:30:20 24° 50° (NE) 23:35:53 437.405
Oscar 11 24 May 23:25:20 23:28:52 23° 269° (W) 23:32:20 145.826/435.025
CUBEBUG 1 24 May 23:28:09 23:32:14 40° 67° (ENE) 23:36:22 437.445
POLYITAN 1 24 May 23:29:45 23:30:03 10° 83° (E) 23:30:35 437.675
DOVE 4 24 May 23:30:50 23:32:13 11° 281° (W) 23:33:18 437.250
DELFI C3 24 May 23:32:39 23:35:57 23° 268° (W) 23:39:12 145.870
ANTELSAT 24 May 23:38:16 23:41:56 25° 92° (E) 23:45:36 437.575/2403.000
AIST 1 24 May 23:43:03 23:45:50 16° 299° (WNW) 23:48:29
UWE-3 24 May 23:47:10 23:50:52 22° 270° (W) 23:54:29 435.000/436.395/437.385
BEESAT 2 24 May 23:51:57 23:53:56 13° 353° (N) 23:55:55 435.950
AISAT 24 May 23:53:19 23:57:44 65° 258° (WSW) 00:02:13 437.250
NANOSAT C BR1 24 May 23:59:05 00:02:12 20° 90° (E) 00:05:22 145.865
Cosmos 2491 25 May 00:00:41 00:06:09 17° 317° (NW) 00:11:18 435.465 / 435.565
FUNcube-1 25 May 00:04:11 00:07:31 19° 271° (W) 00:10:44 145.935
QB50P2 25 May 00:05:06 00:08:29 23° 91° (E) 00:11:57 145.880/145.840
TIGRISAT 25 May 00:11:53 00:16:14 49° 99° (E) 00:20:28 435.000
SPROUT 25 May 00:16:22 00:20:21 37° 67° (ENE) 00:24:23 437.525
POPSAT HIP 1 25 May 00:17:46 00:21:31 29° 94° (E) 00:25:17 437.405
DANDE 25 May 00:18:32 00:26:22 41° 61° (ENE) 00:33:08 436.750
GONETS M04 25 May 00:20:52 00:28:56 39° 63° (ENE) 00:37:02
DUCHIFAT 1 25 May 00:21:40 00:25:29 31° 95° (E) 00:29:18 145.980
UNISAT 6 25 May 00:31:13 00:35:42 78° 103° (ESE) 00:40:03 437.425
ITUPSAT 1 25 May 00:35:33 00:37:32 13° 52° (NE) 00:39:41 437.325
Cosmos 2504 25 May 00:37:09 00:41:47 18° 284° (WNW) 00:46:03 435.465 / 435.565
BEESAT 25 May 00:44:04 00:46:39 15° 55° (NE) 00:49:24 436.000
BEESAT 3 25 May 00:45:27 00:47:23 13° 8° (N) 00:49:19 437.485
O/OREOS (USA 219) 25 May 00:48:01 00:50:45 16° 38° (NE) 00:53:34 437.305
TISAT 1 25 May 00:48:45 00:52:55 58° 71° (ENE) 00:57:09 437.305
SWISSCUBE 25 May 00:51:31 00:54:39 18° 57° (ENE) 00:57:54 437.505
50 SAT 25 May 00:51:35 00:54:15 16° 271° (W) 00:56:47 437.505
UKube-1 25 May 00:52:23 00:54:04 12° 275° (W) 00:55:33 .
ESTCUBE 1 25 May 00:53:12 00:57:13 31° 266° (W) 01:01:13 437.505/2401.250
BUGSAT 1 25 May 00:55:20 00:59:29 47° 99° (E) 01:03:37 437.445
HUMSAT D 25 May 00:59:55 01:00:49 10° 277° (W) 01:01:29 437.325/437.525
VELOX 1 25 May 01:00:58 01:04:00 17° 271° (W) 01:06:56 145.980
QB50P1 25 May 01:01:48 01:06:08 77° 103° (ESE) 01:10:24 145.935-145.965
POLYITAN 1 25 May 01:02:28 01:06:48 79° 102° (ESE) 01:11:06 437.675
AIST 2 25 May 01:04:55 01:07:00 13° 358° (N) 01:09:06 435.215
CUBEBUG 1 25 May 01:05:00 01:08:45 27° 267° (W) 01:12:28 437.445
CUSAT 1 25 May 01:06:31 01:14:30 84° 78° (ENE) 01:20:52 437.405
ANTELSAT 25 May 01:14:41 01:18:57 43° 292° (WNW) 01:23:04 437.575/2403.000
Cosmos 2499 25 May 01:25:26 01:30:00 18° 51° (NE) 01:34:45 435.465 / 435.565
BEESAT 2 25 May 01:31:06 01:33:36 15° 16° (NNE) 01:36:08 435.950
NANOSAT C BR1 25 May 01:34:10 01:38:24 54° 289° (WNW) 01:42:33 145.865
QB50P2 25 May 01:40:30 01:44:38 46° 291° (WNW) 01:48:44 145.880/145.840
Oscar 19 25 May 01:42:46 01:44:02 11° 81° (E) 01:45:36 437.125/150
TIGRISAT 25 May 01:49:08 01:52:44 24° 298° (WNW) 01:56:10 435.000
SPROUT 25 May 01:52:44 01:56:31 28° 266° (W) 02:00:18 437.525
POPSAT HIP 1 25 May 01:53:30 01:57:29 36° 293° (WNW) 02:01:23 437.405
DUCHIFAT 1 25 May 01:57:25 02:01:20 34° 294° (WNW) 02:05:10 145.980
DANDE 25 May 02:01:54 02:10:05 59° 266° (W) 02:16:51 436.750
ISS 25 May 02:06:16 02:09:08 29° 149° (SSE) 02:12:03 145.825
UNISAT 6 25 May 02:09:05 02:11:57 17° 303° (WNW) 02:14:40 437.425
ITUPSAT 1 25 May 02:09:55 02:14:38 68° 72° (ENE) 02:19:24 437.325
GONETS M04 25 May 02:17:43 02:26:24 63° 267° (W) 02:34:56
BEESAT 25 May 02:19:05 02:23:51 82° 72° (ENE) 02:28:38 436.000
BEESAT 3 25 May 02:23:13 02:26:41 25° 31° (NNE) 02:30:09 437.485
TISAT 1 25 May 02:26:05 02:29:06 18° 271° (W) 02:32:02 437.305
O/OREOS (USA 219) 25 May 02:26:30 02:31:00 76° 61° (ENE) 02:35:28 437.305
SWISSCUBE 25 May 02:27:13 02:31:59 80° 256° (WSW) 02:36:46 437.505
BUGSAT 1 25 May 02:31:16 02:34:43 24° 298° (WNW) 02:38:08 437.445
STARS 25 May 02:34:38 02:37:44 19° 59° (ENE) 02:40:57 437.465
QB50P1 25 May 02:38:47 02:41:30 16° 302° (WNW) 02:44:05 145.935-145.965
POLYITAN 1 25 May 02:39:32 02:42:13 16° 302° (WNW) 02:44:44 437.675
PCSat 25 May 02:42:18 02:47:33 55° 120° (ESE) 02:52:53 145.827
AIST 2 25 May 02:44:06 02:47:09 19° 21° (NNE) 02:50:11 435.215
CUSAT 1 25 May 02:50:16 02:56:10 24° 280° (W) 03:01:06 437.405
KKS-1 25 May 02:59:49 03:04:04 44° 68° (ENE) 03:08:22 437.445
BEESAT 2 25 May 03:08:46 03:12:43 41° 39° (NE) 03:16:38 435.950
Cosmos 2499 25 May 03:17:33 03:24:43 74° 77° (ENE) 03:31:48 435.465 / 435.565
Oscar 19 25 May 03:19:20 03:24:31 69° 102° (ESE) 03:29:40 437.125/150
ITAMSAT 1 25 May 03:28:41 03:33:10 29° 93° (E) 03:37:43 435.822/435.867
ISS 25 May 03:42:04 03:45:20 86° 163° (SSE) 03:48:37 145.825
DANDE 25 May 03:47:23 03:51:33 15° 288° (WNW) 03:55:03 436.750
ITUPSAT 1 25 May 03:49:41 03:53:04 18° 271° (W) 03:56:20 437.325
Gurwin Techsat 1B 25 May 03:53:07 03:58:12 43° 97° (E) 04:03:16 435.225
BEESAT 25 May 03:59:32 04:02:24 15° 274° (W) 04:05:04 436.000
BEESAT 3 25 May 04:00:57 04:05:03 70° 232° (SW) 04:09:05 437.485
O/OREOS (USA 219) 25 May 04:07:12 04:09:53 15° 259° (W) 04:12:26 437.305
SWISSCUBE 25 May 04:08:50 04:10:44 12° 276° (W) 04:12:24 437.505
STARS 25 May 04:09:21 04:13:47 66° 258° (WSW) 04:18:14 437.465
MOZHAYETS 4 25 May 04:13:35 04:17:13 25° 62° (ENE) 04:20:57
AO-7 25 May 04:14:42 04:19:56 18° 83° (E) 04:25:33 29.400- 29.500
GONETS M04 25 May 04:16:48 04:21:32 15° 289° (WNW) 04:25:48
AIST 2 25 May 04:22:20 04:26:33 59° 44° (NE) 04:30:42 435.215
PCSat 25 May 04:26:11 04:31:14 37° 321° (NW) 04:36:17 145.827
KKS-1 25 May 04:37:06 04:40:55 26° 267° (W) 04:44:40 437.445
BEESAT 2 25 May 04:47:00 04:50:46 34° 239° (WSW) 04:54:26 435.950
Oscar 19 25 May 04:59:25 05:03:28 23° 302° (WNW) 05:07:23 437.125/150
JAS-2 25 May 05:03:29 05:08:13 34° 95° (E) 05:12:59 435.910
SO-50 25 May 05:06:17 05:10:51 50° 124° (SE) 05:15:35 436.795
ITAMSAT 1 25 May 05:07:53 05:12:56 50° 293° (WNW) 05:17:57 435.822/435.867
VERMONT LUNAR 25 May 05:11:29 05:12:31 11° 170° (S) 05:13:35 437.305
Cosmos 2499 25 May 05:11:38 05:17:11 25° 279° (W) 05:22:32 435.465 / 435.565
HORYU 2 25 May 05:14:31 05:18:48 44° 99° (E) 05:23:03 437.375
ISS 25 May 05:18:31 05:21:48 87° 7° (N) 05:25:06 145.825
Gurwin Techsat 1B 25 May 05:33:19 05:38:07 35° 297° (WNW) 05:42:52 435.225
BEESAT 3 25 May 05:41:50 05:42:20 10° 250° (WSW) 05:42:36 437.485
CUBESAT XI-V 25 May 05:46:39 05:49:59 20° 60° (ENE) 05:53:26 437.345
MOZHAYETS 4 25 May 05:49:45 05:54:13 50° 261° (W) 05:58:42
AIST 2 25 May 06:01:26 06:04:50 23° 243° (WSW) 06:08:07 435.215
Cosmos 2491 25 May 06:05:02 06:12:29 30° 57° (ENE) 06:20:03 435.465 / 435.565
AO-7 25 May 06:06:02 06:14:26 73° 106° (ESE) 06:22:48 29.400- 29.500
PCSat 25 May 06:12:42 06:16:13 17° 346° (NNW) 06:19:42 145.827
STRAND 1 25 May 06:13:57 06:17:38 21° 57° (ENE) 06:21:25 437.568
PRISM 25 May 06:27:56 06:31:06 22° 62° (ENE) 06:34:20 437.425
SO-50 25 May 06:47:03 06:51:34 39° 325° (NW) 06:56:11 436.795
VERMONT LUNAR 25 May 06:47:34 06:48:55 12° 187° (S) 06:50:14 437.305
JAS-2 25 May 06:48:39 06:53:31 39° 296° (WNW) 06:58:18 435.910
ITAMSAT 1 25 May 06:50:00 06:51:23 11° 312° (NW) 06:52:34 435.822/435.867
PHONESAT 2.4 25 May 06:51:13 06:53:06 14° 174° (S) 06:54:59 2401.200-2431.200
HORYU 2 25 May 06:51:32 06:55:16 26° 297° (WNW) 06:58:54 437.375
M-CUBED/EXP-1 PRIME 25 May 06:53:01 06:56:45 34° 62° (ENE) 07:00:16 437.505
ISS 25 May 06:55:01 06:58:05 37° 208° (SSW) 07:01:08 145.825
AUBIESAT-1 25 May 07:03:08 07:06:54 37° 63° (ENE) 07:10:27 437.475
CUTE-I 25 May 07:05:23 07:09:26 22° 89° (E) 07:13:37 437.470
YUBILEINY 25 May 07:07:00 07:12:44 21° 75° (ENE) 07:18:48 435.215
CUBESAT XI-V 25 May 07:22:28 07:27:02 64° 258° (WSW) 07:31:40 437.345
Cubesat XI-IV 25 May 07:24:58 07:29:41 31° 94° (E) 07:34:28 437.490
STRAND 1 25 May 07:51:15 07:56:21 76° 257° (WSW) 08:01:30 437.568
PCSat 25 May 07:58:24 08:01:46 16° 12° (NNE) 08:05:12 145.827
AO-7 25 May 07:59:20 08:06:47 37° 308° (NW) 08:14:07 29.400- 29.500
Cosmos 2491 25 May 08:01:39 08:10:34 83° 262° (W) 08:19:22 435.465 / 435.565
PRISM 25 May 08:02:23 08:06:19 46° 261° (W) 08:10:18 437.425
AIST 1 25 May 08:05:15 08:09:07 30° 69° (ENE) 08:13:01
BRITE-PL 25 May 08:20:32 08:23:29 15° 81° (E) 08:26:38 437.365/2234.400
M-CUBED/EXP-1 PRIME 25 May 08:27:55 08:31:38 29° 258° (WSW) 08:35:05 437.505
PHONESAT 2.4 25 May 08:28:52 08:30:23 12° 191° (SSW) 08:31:52 2401.200-2431.200
SO-50 25 May 08:29:55 08:33:23 19° 349° (N) 08:36:52 436.795
GOMX 1 25 May 08:34:15 08:36:01 12° 79° (E) 08:38:03 467.674
AUBIESAT-1 25 May 08:38:13 08:41:45 26° 258° (WSW) 08:45:03 437.475
CUTE-I 25 May 08:44:43 08:50:04 68° 290° (WNW) 08:55:24 437.470
HO-68 25 May 08:50:29 08:54:09 15° 81° (E) 08:58:11 435.675
YUBILEINY 25 May 08:59:33 09:08:19 80° 97° (E) 09:17:04 435.215
Cubesat XI-IV 25 May 09:04:51 09:10:01 48° 294° (WNW) 09:15:09 437.490
CANX-2 25 May 09:26:52 09:29:44 18° 89° (E) 09:32:42 2200.000
CUTE 1.7 + AOD 2 25 May 09:30:44 09:33:35 18° 89° (E) 09:36:33 437.475
STRAND 1 25 May 09:34:25 09:36:34 12° 277° (W) 09:38:27 437.568
Cosmos 2504 25 May 09:36:29 09:41:10 17° 76° (ENE) 09:46:04 435.465 / 435.565
CINEMA 3 25 May 09:36:34 09:38:36 13° 82° (E) 09:40:49 145.822/145.860
TIGRISAT 25 May 09:41:16 09:43:44 15° 56° (NE) 09:46:19 435.000
PCSat 25 May 09:41:54 09:46:50 34° 37° (NE) 09:51:48 145.827
DOVE 4 25 May 09:42:42 09:47:10 29° 91° (E) 09:51:32 437.250
AIST 1 25 May 09:42:51 09:46:49 33° 269° (W) 09:50:45
AO-7 25 May 09:53:16 09:57:18 14° 333° (NNW) 10:01:08 29.400- 29.500
RS-15 25 May 09:55:22 10:05:11 43° 112° (ESE) 10:15:26 29.354- 29.394
SEEDS 25 May 09:56:00 09:59:30 26° 93° (E) 10:03:01 437.485
BRITE-PL 25 May 09:57:17 10:03:02 77° 102° (ESE) 10:08:37 437.365/2234.400
UNISAT 6 25 May 09:59:44 10:03:07 21° 60° (ENE) 10:06:34 437.425
Cosmos 2491 25 May 09:59:51 10:06:14 22° 284° (WNW) 10:12:14 435.465 / 435.565
GOMX 1 25 May 10:09:51 10:15:20 68° 101° (E) 10:20:35 467.674
SO-50 25 May 10:12:03 10:15:36 19° 13° (NNE) 10:19:13 436.795
COMPASS 1 25 May 10:12:15 10:15:56 30° 94° (E) 10:19:37 437.405
BUGSAT 1 25 May 10:18:56 10:19:33 10° 53° (NE) 10:20:19 437.445
QB50P1 25 May 10:25:32 10:28:11 17° 59° (ENE) 10:30:58 145.935-145.965
AAUSAT CUBESAT 2 25 May 10:25:58 10:29:47 35° 96° (E) 10:33:37 437.432
POLYITAN 1 25 May 10:26:20 10:29:06 17° 59° (ENE) 10:31:59 437.675
CUTE-I 25 May 10:26:21 10:29:18 15° 309° (NW) 10:32:04 437.470
HO-68 25 May 10:36:16 10:43:27 68° 104° (ESE) 10:50:34 435.675
CUBEBUG 2 25 May 10:39:51 10:43:33 24° 91° (E) 10:47:11 437.445
ANTELSAT 25 May 10:41:43 10:46:09 43° 68° (ENE) 10:50:33 437.575/2403.000
Cubesat XI-IV 25 May 10:47:37 10:49:01 11° 313° (NW) 10:50:11 437.490
ZACube-1 25 May 10:50:07 10:53:19 20° 89° (E) 10:56:33 437.345
NANOSAT C BR1 25 May 10:56:21 11:00:02 29° 64° (ENE) 11:03:47 145.865
UKube-1 25 May 10:57:33 10:58:38 11° 84° (E) 10:59:58 .
YUBILEINY 25 May 10:58:38 11:06:14 31° 302° (WNW) 11:13:40 435.215
HUMSAT D 25 May 11:00:49 11:02:25 12° 85° (E) 11:04:11 437.325/437.525
CANX-2 25 May 11:01:55 11:06:04 57° 288° (WNW) 11:10:12 2200.000
DX 1 25 May 11:02:38 11:04:45 14° 86° (E) 11:07:05 434.975-435.025
QB50P2 25 May 11:02:44 11:06:36 34° 66° (ENE) 11:10:32 145.880/145.840
CUTE 1.7 + AOD 2 25 May 11:05:45 11:09:55 57° 288° (WNW) 11:14:02 437.475
DELFI C3 25 May 11:05:57 11:09:35 32° 96° (E) 11:13:15 145.870
Oscar 11 25 May 11:06:24 11:10:33 44° 98° (E) 11:14:41 145.826/435.025
CINEMA 3 25 May 11:11:48 11:16:43 85° 104° (ESE) 11:21:23 145.822/145.860
TIGRISAT 25 May 11:15:08 11:19:50 82° 76° (ENE) 11:24:31 435.000
POPSAT HIP 1 25 May 11:15:15 11:19:19 42° 68° (ENE) 11:23:25 437.405
DUCHIFAT 1 25 May 11:18:44 11:22:48 45° 69° (ENE) 11:26:55 145.980
DOVE 4 25 May 11:20:06 11:25:11 49° 292° (WNW) 11:30:00 437.250
Cosmos 2504 25 May 11:25:13 11:33:28 74° 96° (E) 11:41:11 435.465 / 435.565
PCSat 25 May 11:25:14 11:30:37 62° 239° (WSW) 11:35:57 145.827
UWE-3 25 May 11:30:47 11:35:14 58° 100° (E) 11:39:30 435.000/436.395/437.385
SEEDS 25 May 11:31:32 11:35:26 38° 292° (WNW) 11:39:18 437.485
UNISAT 6 25 May 11:34:49 11:39:30 66° 258° (WSW) 11:44:08 437.425
BRITE-PL 25 May 11:36:31 11:41:00 24° 302° (WNW) 11:45:17 437.365/2234.400
AISAT 25 May 11:39:43 11:42:42 18° 89° (E) 11:45:48 437.250
FUNcube-1 25 May 11:45:53 11:50:16 64° 101° (E) 11:54:31 145.935
COMPASS 1 25 May 11:47:53 11:51:38 32° 293° (WNW) 11:55:20 437.405
GOMX 1 25 May 11:48:35 11:53:00 25° 301° (WNW) 11:57:12 467.674
BUGSAT 1 25 May 11:50:07 11:54:14 64° 72° (ENE) 11:58:26 437.445
SO-50 25 May 11:52:38 11:57:22 42° 37° (NE) 12:02:06 436.795
QB50P1 25 May 11:59:17 12:03:35 74° 258° (WSW) 12:07:54 145.935-145.965
POLYITAN 1 25 May 12:00:14 12:04:33 72° 257° (WSW) 12:08:54 437.675
AAUSAT CUBESAT 2 25 May 12:01:45 12:05:20 28° 295° (WNW) 12:08:50 437.432
RS-15 25 May 12:06:00 12:16:58 75° 318° (NW) 12:28:23 29.354- 29.394
CUBEBUG 2 25 May 12:16:07 12:20:30 46° 291° (WNW) 12:24:42 437.445
ANTELSAT 25 May 12:19:01 12:23:05 28° 267° (W) 12:27:04 437.575/2403.000
50 SAT 25 May 12:21:13 12:24:58 42° 98° (E) 12:28:40 437.505
HO-68 25 May 12:24:31 12:30:48 34° 305° (NW) 12:36:58 435.675
ZACube-1 25 May 12:25:44 12:30:04 53° 290° (WNW) 12:34:15 437.345
UKube-1 25 May 12:31:11 12:35:35 83° 105° (ESE) 12:39:56 .
NANOSAT C BR1 25 May 12:31:48 12:35:47 37° 263° (W) 12:39:48 145.865
HUMSAT D 25 May 12:34:38 12:38:52 84° 285° (WNW) 12:43:01 437.325/437.525
DX 1 25 May 12:37:14 12:41:40 82° 286° (WNW) 12:46:04 434.975-435.025
CUSAT 1 25 May 12:37:18 12:42:08 19° 76° (ENE) 12:47:33 437.405
QB50P2 25 May 12:38:40 12:42:31 31° 265° (W) 12:46:23 145.880/145.840
ESTCUBE 1 25 May 12:40:03 12:44:17 38° 97° (E) 12:48:32 437.505/2401.250
DELFI C3 25 May 12:41:09 12:44:39 29° 294° (WNW) 12:48:06 145.870
Oscar 11 25 May 12:42:59 12:46:32 25° 297° (WNW) 12:50:00 145.826/435.025
VELOX 1 25 May 12:44:15 12:48:44 64° 102° (ESE) 12:53:11 145.980
CUBEBUG 1 25 May 12:47:49 12:52:00 40° 97° (E) 12:56:13 437.445
CINEMA 3 25 May 12:50:05 12:53:17 17° 304° (WNW) 12:56:16 145.822/145.860
POPSAT HIP 1 25 May 12:51:47 12:55:23 25° 268° (W) 12:58:55 437.405
TIGRISAT 25 May 12:54:26 12:57:13 15° 274° (W) 12:59:49 435.000
DUCHIFAT 1 25 May 12:55:21 12:58:50 23° 268° (W) 13:02:16 145.980
DOVE 4 25 May 13:00:31 13:01:47 11° 311° (NW) 13:02:49 437.250
Oscar 19 25 May 13:03:07 13:07:32 29° 61° (ENE) 13:12:00 437.125/150
UWE-3 25 May 13:08:01 13:11:24 21° 300° (WNW) 13:14:37 435.000/436.395/437.385
PCSat 25 May 13:11:24 13:13:06 11° 257° (WSW) 13:14:29 145.827
AISAT 25 May 13:15:17 13:19:47 66° 288° (WNW) 13:24:13 437.250
ITAMSAT 1 25 May 13:15:20 13:18:04 15° 52° (NE) 13:20:58 435.822/435.867
Cosmos 2504 25 May 13:20:31 13:27:38 31° 299° (WNW) 13:34:14 435.465 / 435.565
FUNcube-1 25 May 13:23:03 13:26:10 19° 300° (WNW) 13:29:08 145.935
BUGSAT 1 25 May 13:27:31 13:30:11 16° 272° (W) 13:32:46 437.445
GONETS M04 25 May 13:29:13 13:36:50 35° 83° (E) 13:44:37
AO-7 25 May 13:31:11 13:35:39 16° 31° (NNE) 13:40:21 29.400- 29.500
SO-50 25 May 13:33:15 13:38:01 46° 237° (WSW) 13:42:42 436.795
SPROUT 25 May 13:33:38 13:37:38 35° 96° (E) 13:41:39 437.525
DANDE 25 May 13:34:09 13:40:33 34° 84° (E) 13:47:57 436.750
Gurwin Techsat 1B 25 May 13:41:25 13:45:17 22° 57° (ENE) 13:49:17 435.225
50 SAT 25 May 13:56:24 13:59:28 22° 297° (WNW) 14:02:27 437.505
TISAT 1 25 May 14:03:45 14:07:57 51° 100° (E) 14:12:08 437.305
ITUPSAT 1 25 May 14:07:16 14:09:00 12° 84° (E) 14:10:59 437.325
UKube-1 25 May 14:08:32 14:11:11 16° 303° (WNW) 14:13:44 .
HUMSAT D 25 May 14:12:02 14:13:58 13° 304° (NW) 14:15:45 437.325/437.525
Cosmos 2499 25 May 14:14:10 14:15:37 11° 72° (ENE) 14:17:34 435.465 / 435.565
HO-68 25 May 14:14:48 14:16:32 11° 328° (NNW) 14:17:59 435.675
DX 1 25 May 14:15:01 14:17:17 14° 305° (NW) 14:19:24 434.975-435.025
BEESAT 25 May 14:15:27 14:18:01 15° 86° (E) 14:20:46 436.000
CUSAT 1 25 May 14:16:02 14:23:29 70° 97° (E) 14:31:49 437.405
ESTCUBE 1 25 May 14:17:06 14:21:05 31° 295° (WNW) 14:25:02 437.505/2401.250
RS-15 25 May 14:20:56 14:31:24 43° 349° (N) 14:42:17 29.354- 29.394
VELOX 1 25 May 14:21:36 14:24:54 20° 301° (WNW) 14:28:06 145.980
SWISSCUBE 25 May 14:23:10 14:26:26 19° 89° (E) 14:29:50 437.505
CUBEBUG 1 25 May 14:24:24 14:28:16 29° 296° (WNW) 14:32:04 437.445
Oscar 19 25 May 14:41:36 14:46:40 52° 260° (W) 14:51:46 437.125/150
HORYU 2 25 May 14:43:57 14:46:02 13° 55° (NE) 14:48:17 437.375
ITAMSAT 1 25 May 14:51:37 14:56:47 71° 70° (ENE) 15:01:59 435.822/435.867
AISAT 25 May 14:53:58 14:55:34 12° 307° (NW) 14:57:01 437.250
SPROUT 25 May 15:09:49 15:13:41 31° 295° (WNW) 15:17:28 437.525
DANDE 25 May 15:15:51 15:23:14 71° 287° (WNW) 15:31:50 436.750
AO-7 25 May 15:18:50 15:26:27 43° 55° (NE) 15:34:11 29.400- 29.500
Gurwin Techsat 1B 25 May 15:19:28 15:24:46 77° 256° (WSW) 15:30:08 435.225
JAS-2 25 May 15:20:49 15:26:24 33° 62° (ENE) 15:31:31 435.910
GONETS M04 25 May 15:24:24 15:33:14 67° 286° (WNW) 15:42:04
TISAT 1 25 May 15:40:06 15:43:27 22° 298° (WNW) 15:46:43 437.305
ITUPSAT 1 25 May 15:42:58 15:47:48 80° 104° (ESE) 15:52:36 437.325
BEESAT 25 May 15:51:47 15:56:36 85° 286° (WNW) 16:01:22 436.000
STARS 25 May 15:54:57 15:57:43 16° 88° (E) 16:00:37 437.465
Cosmos 2499 25 May 15:59:34 16:07:16 53° 92° (E) 16:14:30 435.465 / 435.565
CUSAT 1 25 May 15:59:48 16:06:54 37° 300° (WNW) 16:14:26 437.405
SWISSCUBE 25 May 16:00:04 16:04:49 68° 289° (WNW) 16:09:35 437.505
HORYU 2 25 May 16:17:31 16:22:00 79° 75° (ENE) 16:26:32 437.375
KKS-1 25 May 16:22:06 16:26:24 43° 98° (E) 16:30:41 437.445
ITAMSAT 1 25 May 16:33:05 16:36:53 20° 272° (W) 16:40:34 435.822/435.867
